Regional Weather Roundup
Issued by NWS

Home | Current Version | Previous Version | Text Only | Print | Product List | Glossary On
Versions: 1 2 3 4 5 6 7 8 9 10 11 12 13 14 15 16 17 18 19 20 21 22 23 24 25 26 27 28 29 30 31 32 33 34 35 36 37 38 39 40 41 42 43 44 45 46 47 48 49 50
000
ASUS43 KLSX 281907
RWRMO

WEATHER SUMMARY FOR MISSOURI
NATIONAL WEATHER SERVICE SPRINGFIELD MO
200 PM CDT SAT MAR 28 2015

NOTE: "FAIR" INDICATES FEW OR NO CLOUDS BELOW 12,000 FEET WITH NO
       SIGNIFICANT WEATHER AND/OR OBSTRUCTIONS TO VISIBILITY.
       CURRENT SKY AND/OR WEATHER CONDITIONS ARE NOT AVAILABLE FOR
       CHILLICOTHE AND FARMINGTON.

MOZ001>031-035>038-043-044-053-054-282000-
...NORTHERN AND WESTERN MISSOURI...

CITY           SKY/WX    TMP DP  RH WIND       PRES   REMARKS
KANSAS CTY INT PTSUNNY   50  31  48 SE14G21   30.16F
KANSAS C DTWN  CLOUDY    52  30  43 SE12G20   30.17S
LEE`S SUMMIT   PTSUNNY   49  30  48 SE13G20   30.17F
ST JOSEPH      SUNNY     50  30  46 SE13      30.17F
CHILLICOTHE      N/A     45  30  55 SE12      30.23F
KIRKSVILLE     SUNNY     45  21  38 S16       30.24F

$$
MOZ066>068-077>081-088>096-101>105-282000-
...SOUTHWEST MISSOURI...

CITY           SKY/WX    TMP DP  RH WIND       PRES   REMARKS
SPRINGFIELD    CLOUDY    42  29  59 SE16      30.16F
JOPLIN         SUNNY     58  36  43 E10G23    30.10F

$$
MOZ032>034-039>042-045>050-055>058-069>072-282000-
...CENTRAL MISSOURI...

CITY           SKY/WX    TMP DP  RH WIND       PRES   REMARKS
COLUMBIA       MOSUNNY   46  26  45 S12       30.24F
JEFFERSON CITY PTSUNNY   43  25  49 E10       30.25F
ROLLA          PTSUNNY   42  28  57 E10       30.22F
SEDALIA        MOSUNNY   50  32  50 SE13      30.21F
WHITEMAN AFB   MOSUNNY   49  31  50 SE10      30.18F
WARRENSBURG    MOSUNNY   50  30  46 E13G20    30.19F
OSAGE BEACH    CLOUDY    45  30  57 S8G18     30.23F

$$
MOZ051-052-059>065-282000-
...EAST CENTRAL MISSOURI...

CITY           SKY/WX    TMP DP  RH WIND       PRES   REMARKS
ST LOUIS INTL  SUNNY     43  18  36 E7        30.30F
SPIRIT OF STL  SUNNY     43  17  35 SE8       30.29F
ST CHARLES     SUNNY     41  20  43 E5        30.31F

$$
MOZ072>076-082>087-097>100-106>115-282000-
...SOUTH CENTRAL AND SOUTHEAST MISSOURI...

CITY           SKY/WX    TMP DP  RH WIND       PRES   REMARKS
CAPE GIRARDEAU SUNNY     43  22  43 S6        30.31F
FARMINGTON     MOSUNNY   45  19  36 CALM      30.30F
POPLAR BLUFF   MOSUNNY   43  26  51 SE8       30.30F
WEST PLAINS    CLOUDY    35  31  85 SE8       30.25F WCI  29

$$


USA.gov is the U.S. government's official web portal to all federal, state and local government web resources and services.